User: anonymous   Login
Location: Mt. Cuba Astronomical Observatory
(39.8100°N, 75.6300°W)
Time: 17:23:02
(UTC-05:00)
Language:

Cosmos 2058 - Orbit

View from above orbital plane
View from above orbital plane
View from above satellite
View from above satellite

Ground track
Ground track

The orbit data is extracted from the following two-line orbital elements,

1 20465U 90010A   15028.52109268  .00002211  00000-0  19529-3 0  3434
2 20465 082.4918 004.2204 0015508 351.8034 008.2932 14.95846263355089
Epoch (UTC): 28 January 2015 12:30:22
Eccentricity: 0.0015508
inclination: 82.4918°
perigee height: 569 km
apogee height: 590 km
right ascension of ascending node: 4.2204°
argument of perigee: 351.8034°
revolutions per day: 14.95846263
mean anomaly at epoch: 8.2932°
orbit number at epoch: 35508

The dashed part of the orbit path shows where the satellite is in the earth's shadow,  

DLR